| time (UTC) | temp F | wind direction | speed knots | gust knots | rain 1hr in | rain 24hr in | rain mn in | humidity % | barometer mb |
| 20260507003209 | 47 | 263 | 6.1 | 0.0 | 0.00 | 0.00 | 0.00 | 83 | 1012.1 |
| 20260507000209 | 47 | 199 | 6.1 | 0.0 | 0.00 | 0.00 | 0.00 | 83 | 1012.1 |
| 20260506233209 | 47 | 269 | 3.5 | 0.0 | 0.00 | 0.00 | 0.00 | 83 | 1012.1 |
| 20260506230209 | 48 | 225 | 6.1 | 0.0 | 0.00 | 0.00 | 0.00 | 83 | 1011.8 |
| 20260506223209 | 48 | 232 | 7.8 | 0.0 | 0.00 | 0.00 | 0.00 | 83 | 1011.7 |
| 20260506213209 | 49 | 221 | 7.8 | 0.0 | 0.00 | 0.00 | 0.06 | 82 | 1011.4 |
| 20260506210210 | 49 | 200 | 7.8 | 0.0 | 0.00 | 0.00 | 0.06 | 82 | 1011.2 |
| 20260506203210 | 50 | 209 | 7.8 | 0.0 | 0.00 | 0.00 | 0.06 | 82 | 1011.3 |
| 20260506200210 | 50 | 243 | 7.8 | 0.0 | 0.00 | 0.00 | 0.06 | 82 | 1011.2 |
| 20260506193215 | 50 | 227 | 8.7 | 0.0 | 0.00 | 0.00 | 0.06 | 81 | 1010.7 |
| 20260506190211 | 50 | 238 | 12.2 | 0.0 | 0.00 | 0.00 | 0.06 | 80 | 1010.3 |
| 20260506183209 | 50 | 217 | 10.4 | 0.0 | 0.00 | 0.00 | 0.06 | 80 | 1010.0 |
| 20260506180216 | 51 | 296 | 10.4 | 0.0 | 0.00 | 0.00 | 0.06 | 81 | 1009.8 |
| 20260506173210 | 51 | 242 | 13.0 | 0.0 | 0.00 | 0.00 | 0.06 | 80 | 1009.3 |
| 20260506170215 | 51 | 262 | 13.0 | 0.0 | 0.00 | 0.00 | 0.06 | 80 | 1008.7 |
| 20260506163210 | 51 | 302 | 8.7 | 0.0 | 0.00 | 0.00 | 0.06 | 83 | 1008.8 |
| 20260506160210 | 51 | 259 | 18.2 | 0.0 | 0.00 | 0.00 | 0.06 | 81 | 1008.6 |
| 20260506153210 | 52 | 231 | 22.6 | 0.0 | 0.00 | 0.00 | 0.06 | 82 | 1008.2 |
| 20260506150210 | 62 | 221 | 22.6 | 0.0 | 0.00 | 0.00 | 0.03 | 66 | 1007.2 |
| 20260506143210 | 63 | 209 | 3.5 | 0.0 | 0.00 | 0.00 | 0.03 | 64 | 1006.2 |
| 20260506140210 | 58 | 292 | 3.5 | 0.0 | 0.00 | 0.00 | 0.03 | 76 | 1006.1 |
| 20260506133211 | 62 | 215 | 6.1 | 0.0 | 0.00 | 0.00 | 0.00 | 60 | 1006.5 |
| 20260506130211 | 63 | 194 | 7.0 | 0.0 | 0.00 | 0.00 | 0.00 | 54 | 1006.4 |
| 20260506123210 | 63 | 220 | 7.8 | 0.0 | 0.00 | 0.00 | 0.00 | 57 | 1006.1 |
| 20260506120210 | 62 | 150 | 3.5 | 0.0 | 0.00 | 0.00 | 0.00 | 59 | 1006.1 |
| 20260506113217 | 63 | 124 | 4.3 | 0.0 | 0.00 | 0.00 | 0.00 | 60 | 1006.2 |
| 20260506110210 | 63 | 171 | 4.3 | 0.0 | 0.00 | 0.00 | 0.00 | 60 | 1006.4 |
| 20260506100213 | 60 | 263 | 3.5 | 0.0 | 0.00 | 0.00 | 0.00 | 66 | 1007.0 |
| 20260506093211 | 61 | 177 | 6.1 | 0.0 | 0.00 | 0.00 | 0.00 | 65 | 1007.2 |
| 20260506090211 | 60 | 348 | 6.1 | 0.0 | 0.00 | 0.00 | 0.00 | 65 | 1007.2 |
| 20260506083211 | 59 | 355 | 6.1 | 0.0 | 0.00 | 0.00 | 0.00 | 71 | 1007.1 |
| 20260506080212 | 54 | 5 | 2.6 | 0.0 | 0.00 | 0.00 | 0.00 | 82 | 1007.4 |
| 20260506073211 | 54 | 345 | 2.6 | 0.0 | 0.00 | 0.00 | 0.00 | 82 | 1007.5 |
| 20260506070212 | 54 | 148 | 3.5 | 0.0 | 0.00 | 0.00 | 0.00 | 82 | 1007.9 |
| 20260506060210 | 49 | 109 | 2.6 | 0.0 | 0.00 | 0.00 | 0.00 | 90 | 1007.9 |
| 20260506050211 | 46 | 159 | 0.9 | 0.0 | 0.00 | 0.00 | 0.00 | 88 | 1008.0 |
| 20260506043211 | 46 | 159 | 0.9 | 0.0 | 0.00 | 0.00 | 0.00 | 88 | 1008.2 |
| 20260506040211 | 46 | 158 | 1.7 | 0.0 | 0.00 | 0.00 | 0.00 | 88 | 1008.4 |
| 20260506033211 | 46 | 184 | 2.6 | 0.0 | 0.00 | 0.00 | 0.00 | 87 | 1008.7 |
| 20260506030212 | 47 | 188 | 1.7 | 0.0 | 0.00 | 0.00 | 0.00 | 87 | 1008.8 |
| 20260506023211 | 47 | 182 | 1.7 | 0.0 | 0.00 | 0.00 | 0.00 | 87 | 1009.1 |
| 20260506020212 | 51 | 137 | 4.3 | 0.0 | 0.00 | 0.00 | 0.00 | 82 | 1009.1 |
| 20260506013211 | 51 | 242 | 0.9 | 0.0 | 0.00 | 0.00 | 0.00 | 82 | 1009.2 |
| 20260506010212 | 51 | 242 | 2.6 | 0.0 | 0.00 | 0.00 | 0.00 | 82 | 1009.6 |